Current weather by "City, St" or "zip code"  
 

Current Conditions: Fryeburg, Eastern Slopes Regional Airport, ME

Fair


15.0 F

Last Updated on Jan 22 2019, 10:54 am EST
Humidity: 26%
Wind Speed: SE 4.6 mph
Barometer 30.40 in
Dewpoint: -14. F
Visibility: 10.00 mi
Precip: --
Heat Index: NA
Wind Chill: 8 F
Current conditions at:

Fryeburg, Eastern Slopes Regional Airport, ME (KIZG)

Lat: 43.98 Lon: 70.95

Local Radar Image active severe weather and emergency alerts image image weather storm and storm spotter reports image weather observation monitoring service image
Local
Radar
Active
Alerts
Storm Reports Obs
Monitoring

iAlert Weather and Emergency Alert Notification Services:


ialert severe weather and emergency alerts by text message and email ialert daily weather forecast by email and text message service ialert real-time weather-observation monitoring and alert notification service ialert storm report monitoring alert notification

Observation History for Fryeburg, Eastern Slopes Regional Airport, ME


Time Wind
(mph)
Vis
(mi)
Weather Precip (in) Temperature (F) Relative
Humidity
Wind
Chill
(°F)
Heat
Index
(°F)
Pressure
Air Dwpt altimeter
(in)
sea level
(mb)
10:54 am EST SE 4.6 10.00 Fair -- 15.0 -14. 26% 8 NA 30.40 1030.6
9:54 am EST E 3.5 10.00 Fair -- 11.0 -11. 34% NA NA 30.37 1029.6
8:54 am EST SE 4.6 10.00 Fair -- 5.0 -13. 42% -4 NA 30.34 1028.9
7:54 am EST N 0.0 10.00 Fair -- -5.0 -15. 62% NA NA 30.31 1027.7
6:54 am EST W 4.6 10.00 Fair -- -13.0 -18. 78% -25 NA 30.25 1025.9
5:54 am EST N 0.0 10.00 Fair -- -10.0 -17. 70% NA NA 30.22 1024.9
4:54 am EST N 0.0 10.00 Fair -- -7.0 -16. 64% NA NA 30.18 1023.4
3:54 am EST SW 4.6 10.00 Fair -- -3.0 -15. 56% -13 NA 30.14 1022.1
2:54 am EST N 4.6 10.00 Fair -- -1.0 -16. 48% -11 NA 30.13 1021.5
1:54 am EST 4.6 10.00 Fair -- 3.0 -15. 42% -6 NA 30.08 1019.8
12:54 am EST W 6.9 G 16.1 10.00 Fair -- 3.0 -14. 44% -9 NA 30.03 1018.1
11:54 pm EST W 6.9 10.00 Overcast -- 3.0 -11. 49% -9 NA 29.99 1016.9
10:54 pm EST W 10.4 G 18.4 10.00 Fair -- 3.0 -11. 49% -13 NA 29.96 1015.9
9:54 pm EST W 9.2 G 18.4 10.00 Overcast -- 3.0 -11. 51% -12 NA 29.94 1015.1
8:54 pm EST NW 5.8 10.00 Overcast -- 1.0 -9.0 62% -10 NA 29.92 1014.5
7:54 pm EST W 4.6 10.00 Overcast -- 1.0 -11. 56% -9 NA 29.91 1014.0
6:54 pm EST 4.6 10.00 Overcast -- 0.0 -13. 54% -10 NA 29.89 1013.3
5:54 pm EST N 0.0 10.00 Overcast -- -1.0 -11. 59% NA NA 29.86 1012.5
4:54 pm EST 4.6 9.00 Overcast -- -1.0 -13. 56% -11 NA 29.83 1011.3
3:54 pm EST NW 5.8 G 16.1 9.00 Overcast Trace 0.0 -14. 51% -12 NA 29.78 1009.6
2:54 pm EST W 9.2 G 18.4 7.00 Light Snow Trace 1.0 -14. 48% -14 NA 29.74 1008.3
1:54 pm EST 6.9 10.00 Overcast -- 4.0 -15. 40% -8 NA 29.70 1007.1
12:54 pm EST N 6.9 10.00 Overcast Trace 5.0 -14. 40% -7 NA 29.68 1006.2
11:54 am EST W 6.9 10.00 Overcast -- 5.0 -11. 45% -7 NA 29.67 1005.8

Regional Weather Observation


Whitefield - Mount Washington Regional Airport, NH (KHIE)

Fair
5.0 F

Berlin, Berlin Municipal Airport, NH (KBML)

Fair
6.0 F

Fryeburg, Eastern Slopes Regional Airport, ME (KIZG)

Fair
15.0 F

Auburn-Lewiston, ME (KLEW)

Light Snow
14.0 F

Plymouth Municipal Airport, NH (K1P1)

Fair
11.0 F

Laconia, Laconia Municipal Airport, NH (KLCI)

Fair
17.0 F

Advertise Here


Advertise Here